Airport details for: LOWI (Austria)

Metar

LOWI 152050Z 25004KT 200V270 9999 FEW006 SCT032 00/M02 Q1002 R08/29//95 NOSIG

General details

ICAO: LOWI
IATA: INN
Name (city): Innsbruck
Major:
Country: Austria
vACC: vACC Austria
Description:

http://www.vacc-austria.org/airports/LOWI

Scenery links:
FS9 scenery: Download
FSX/P3D scenery: Download
XP scenery: Download
Elevation: 1907 ft.
Transition altitude: 11000 ft.
MSA: 6500 ft.
Latitude: 47.260278
Longitude: 11.343889
LOWI Charts
LOWI Notams
LOWI Online stations

Runways

Number Course Length Elevation Lat Lon ILS ILS freq ILS FAC GP
08 79° 6562ft / 2000 m 1906ft 47.258944 11.332261 109.7 67° 0.0°
26 259° 6562ft / 2000 m 1894ft 47.261619 11.357017 111.1 255° 3.77°